Wind_Speed
21 22 22 22 20 18 15 12 10 9 9 10 10 10 9 9 9 9 11 13 14 13 12 11 12 13 12 11 10 7 7 8 8 8 9 9 10 10 10 11 10 10 9 9 8 7 7 6 6 7 7 7 8 9 9 9 9 9 9 9 10 10 10 10 10 10 10 10 10 11 11 11 12 12 12 12 11 11 12 13 14 14 14 14 14
21 21 21 21 20 17 14 11 9 7 8 9 9 9 9 9 9 10 11 13 14 12 10 9 11 12 12 10 9 8 6 7 8 8 8 9 10 10 11 10 10 9 8 8 7 7 7 7 6 7 7 7 8 8 8 8 9 9 9 9 10 10 10 10 10 11 11 11 12 12 12 13 13 13 13 13 12 12 12 12 13 14 15 15 15
20 20 20 20 18 16 13 10 9 7 7 8 8 8 9 9 10 10 11 13 13 9 6 7 10 12 11 9 9 7 5 5 8 8 7 8 9 10 9 9 9 8 7 7 6 6 7 7 7 7 7 7 7 8 8 8 8 8 9 9 10 10 10 11 11 11 12 12 13 13 13 13 13 13 13 13 13 13 13 13 13 13 14 15 15
20 20 19 18 17 16 14 12 10 8 7 7 7 8 9 9 9 9 11 13 11 7 6 7 10 13 11 8 8 6 4 4 6 7 7 7 8 8 8 8 7 7 6 5 4 5 5 6 8 8 7 7 7 7 7 7 8 8 9 9 9 10 10 10 10 10 11 12 13 13 14 14 14 14 14 14 14 14 14 14 14 14 14 14 14
19 19 17 16 16 16 16 13 11 10 9 7 6 7 8 9 8 8 9 12 11 8 8 9 10 12 10 8 8 6 4 4 4 6 6 6 7 7 7 6 6 5 3 1 2 3 4 5 7 8 7 7 6 7 7 8 8 8 8 8 8 8 9 9 9 10 10 11 12 12 13 14 14 15 15 15 16 16 16 16 16 16 15 15 15
16 15 16 16 15 14 14 10 9 10 9 6 5 6 7 8 8 8 7 9 11 10 9 10 11 11 10 9 7 5 4 3 3 5 4 5 6 6 5 5 5 3 1 1 2 3 4 4 4 5 5 5 5 5 6 7 8 8 9 8 8 8 9 9 9 10 10 10 10 10 11 12 12 13 14 15 16 16 17 18 18 18 18 17 17
12 11 14 16 15 15 12 8 8 9 8 6 5 6 7 8 8 8 7 9 11 10 10 11 12 10 9 9 6 5 3 2 3 4 3 4 5 5 4 5 4 2 2 2 2 2 3 4 3 1 2 2 3 3 3 4 5 7 8 9 9 9 9 9 9 8 9 9 9 10 10 10 11 11 12 13 15 16 16 17 18 19 19 19 18
9 9 12 15 15 15 12 8 7 9 9 8 6 6 7 7 8 8 8 10 10 10 12 13 12 10 9 8 6 4 3 3 4 4 3 3 4 4 4 4 4 3 2 2 2 2 3 3 3 1 1 1 1 1 1 2 3 4 5 7 7 7 7 7 7 8 8 9 9 9 9 9 10 10 11 13 15 15 15 15 16 17 18 19 19
9 9 11 15 14 11 10 8 8 9 9 8 6 5 7 7 8 8 9 10 11 11 13 13 12 10 8 7 7 5 3 2 4 4 2 3 3 3 3 3 3 3 3 2 2 2 3 2 2 2 2 2 1 0 0 1 2 3 3 4 5 5 6 6 7 7 8 8 8 8 8 8 9 10 11 13 14 13 13 13 13 14 15 17 18
9 9 11 15 13 10 8 7 8 9 9 8 6 6 8 8 8 8 9 10 12 12 12 12 11 10 8 7 6 5 3 3 4 4 3 3 3 3 3 3 2 2 2 2 2 2 2 1 2 2 2 2 1 1 0 0 1 2 2 3 3 4 4 4 5 6 6 7 7 7 7 8 9 10 11 12 12 10 10 11 11 11 12 13 15
10 10 11 13 13 10 8 7 7 8 9 7 7 8 8 8 7 8 10 11 12 12 12 12 12 10 8 7 6 5 4 4 4 3 3 3 3 3 3 2 2 1 2 2 2 2 1 1 1 1 1 1 1 1 0 0 1 1 1 2 2 3 3 3 4 5 6 6 6 7 7 8 9 11 11 11 10 10 9 9 10 10 10 11 12
11 11 11 12 12 11 8 8 8 9 10 9 8 8 8 7 7 9 11 12 13 12 12 12 11 10 8 8 7 6 5 4 3 3 3 4 4 3 2 0 1 2 2 2 2 2 1 1 1 1 0 0 1 1 0 1 1 1 2 2 2 3 4 5 5 6 6 7 7 7 7 8 9 10 11 11 11 10 9 8 8 9 10 10 11
11 11 11 12 13 12 8 8 10 10 10 9 8 8 7 6 8 9 11 13 13 13 13 13 11 10 8 8 7 6 5 3 3 4 4 5 4 2 1 1 2 3 2 0 1 2 1 1 1 1 0 1 2 1 1 2 1 2 3 4 4 4 5 5 6 6 7 7 8 8 7 7 8 9 10 11 11 10 9 8 8 8 9 9 9
11 11 12 12 13 13 10 9 11 10 9 8 7 7 6 6 8 9 11 12 13 13 14 14 11 9 8 8 7 6 5 4 4 4 5 5 4 2 2 3 3 3 2 2 2 2 2 1 1 1 2 3 3 2 3 3 3 3 4 5 5 5 5 5 5 6 6 7 7 7 7 7 7 8 9 10 10 10 9 9 9 8 8 7 7
12 11 11 10 10 12 11 10 9 7 7 7 6 6 6 7 7 9 11 12 12 12 13 12 10 9 8 8 7 6 6 5 5 5 5 5 4 3 4 4 3 3 4 3 2 3 3 2 2 3 4 4 3 3 3 4 4 4 4 5 5 5 5 5 5 5 6 6 6 6 6 6 6 7 7 8 9 9 8 8 8 8 7 7 6
12 12 11 10 9 10 9 8 7 6 7 6 5 6 6 7 7 9 11 11 11 12 12 10 9 9 8 7 7 7 7 6 6 5 5 5 5 4 4 5 4 4 5 4 3 3 4 4 3 4 4 4 4 4 4 4 4 5 4 4 4 5 5 5 5 5 5 5 5 5 6 5 5 6 7 7 8 8 8 7 6 7 7 7 6
14 14 14 12 10 10 9 9 8 7 6 5 5 6 6 7 8 9 11 11 10 11 10 10 9 8 7 7 8 8 9 8 7 6 6 6 6 5 5 6 5 5 5 5 5 4 4 4 4 4 4 4 4 4 4 4 5 5 5 4 4 4 5 5 5 5 5 5 5 5 6 6 6 5 6 7 7 8 8 7 6 6 6 6 6
14 14 14 13 11 10 9 9 8 7 6 6 6 6 7 8 9 11 11 10 10 10 10 10 9 8 8 8 8 9 9 9 8 8 7 6 6 6 6 7 6 6 6 7 7 6 5 5 4 5 5 4 4 4 4 4 5 5 5 5 4 4 4 5 5 5 4 4 4 5 5 6 6 6 6 6 7 7 7 7 6 6 7 7 7
13 13 13 12 10 9 10 9 8 8 8 7 7 8 9 9 10 11 10 9 10 10 10 10 10 9 9 9 9 9 9 9 9 8 8 7 7 7 7 7 7 7 7 7 7 5 5 5 4 4 5 4 4 4 4 5 6 6 6 5 4 4 4 5 6 5 4 4 4 4 5 5 6 6 7 7 6 7 7 7 7 7 8 8 9
14 14 13 11 10 9 10 10 9 10 10 9 9 10 10 10 10 10 10 10 10 11 11 11 11 10 9 9 9 9 9 9 9 8 8 8 8 8 8 7 7 8 7 6 5 4 4 4 4 4 4 4 4 4 4 5 6 6 6 5 5 4 4 5 5 5 5 5 5 5 5 5 5 6 6 6 7 7 8 8 9 9 9 10 10
15 15 14 13 11 10 10 10 10 11 12 12 11 11 11 11 11 10 10 10 11 11 12 11 11 10 9 9 9 8 9 9 8 7 8 8 8 8 8 8 8 7 6 4 4 4 3 3 4 4 4 5 5 5 5 6 7 7 6 6 5 4 4 4 5 4 5 5 5 5 5 5 5 6 6 6 7 7 8 9 9 10 10 10 11
16 15 14 13 11 11 11 12 12 13 14 14 14 13 12 11 11 11 11 11 11 11 12 12 11 10 9 9 9 9 8 8 7 7 7 8 8 8 8 9 9 7 6 5 4 4 4 4 5 5 5 6 6 6 7 7 8 7 7 6 5 5 4 4 4 4 4 5 5 5 5 6 6 6 6 6 7 7 8 8 9 9 10 10 11
17 17 16 14 12 12 13 14 15 15 16 16 15 14 13 12 11 11 11 12 11 11 12 12 10 10 9 9 9 9 9 8 8 8 7 8 8 9 9 9 8 7 7 6 5 5 4 5 6 6 6 7 7 8 8 8 8 7 7 6 6 5 4 4 4 4 5 5 6 6 6 6 6 6 6 6 7 7 7 8 8 9 10 10 10
18 19 18 15 13 14 15 16 18 18 17 16 15 13 12 12 11 11 12 12 12 11 11 11 10 9 10 10 9 9 10 9 9 8 8 8 9 10 10 9 8 8 7 7 6 6 5 6 8 7 7 7 8 8 8 8 8 7 7 7 6 5 5 4 5 5 6 6 6 6 6 6 5 5 6 6 6 7 7 7 8 9 9 10 11
19 20 18 14 14 16 17 18 19 19 17 16 14 13 12 12 11 11 11 12 12 11 10 10 10 10 10 10 10 10 10 9 9 9 9 9 10 11 10 9 8 8 8 7 7 6 6 8 9 7 7 7 7 8 8 8 8 8 7 7 6 6 5 5 5 6 6 6 6 6 5 5 5 5 5 6 6 6 7 8 8 9 10 10 11
18 18 16 15 16 18 19 20 19 18 16 15 14 13 13 12 11 10 10 11 11 11 10 10 10 10 10 10 11 11 10 9 9 10 10 10 11 11 10 9 8 8 7 7 6 6 7 10 9 6 6 7 7 8 8 8 8 8 8 7 7 7 6 6 6 6 6 6 6 6 6 6 5 5 6 6 7 7 8 8 9 9 10 10 11
18 16 16 17 18 19 20 20 19 17 16 16 15 14 13 12 11 10 10 10 10 10 10 10 9 9 10 10 11 11 10 10 10 10 11 11 11 11 10 9 9 8 6 6 6 7 8 10 9 7 7 8 8 9 9 9 9 9 9 8 8 8 7 7 6 6 7 6 6 6 6 6 6 7 7 7 8 8 8 9 9 10 10 11 11
17 16 17 18 19 20 21 21 20 18 17 17 16 14 13 12 11 11 11 11 11 10 10 9 9 9 10 11 11 11 11 11 11 11 11 11 11 11 10 9 9 8 7 7 7 9 10 11 10 9 9 9 9 9 10 10 10 9 9 9 9 8 8 7 7 7 7 7 7 7 8 8 8 8 8 8 8 8 9 9 10 10 11 11 12
17 18 19 19 20 21 21 21 20 19 18 18 16 15 14 12 12 12 12 12 11 10 9 9 9 10 11 12 12 13 13 12 12 12 12 12 12 11 10 9 8 8 8 8 8 10 12 11 10 10 10 10 10 10 10 10 10 10 10 10 10 10 9 8 7 7 7 8 8 8 9 9 9 9 10 10 10 10 10 10 11 11 12 12 13
17 19 19 19 21 22 22 21 21 19 19 18 16 15 14 13 13 13 13 12 12 11 10 10 11 13 14 14 14 14 14 13 12 12 12 12 11 11 11 10 8 8 9 8 8 11 14 12 10 10 10 10 10 11 11 11 11 11 11 11 11 11 10 9 9 9 9 9 9 10 10 11 11 11 11 11 12 12 12 12 13 13 13 14 14
17 19 19 20 22 22 22 21 21 20 19 18 17 16 15 14 13 13 13 12 12 12 12 13 14 15 16 15 14 14 13 13 12 11 11 11 11 11 11 10 9 9 10 9 8 11 14 13 11 11 11 11 11 11 11 12 12 12 13 13 12 12 11 11 10 10 10 10 11 11 12 12 12 13 13 13 13 14 14 15 15 15 15 15 16
18 19 20 21 23 22 22 21 21 20 19 18 17 16 16 15 14 13 13 13 12 12 12 13 14 15 15 14 13 13 13 13 12 11 11 11 11 11 11 11 11 11 12 11 9 10 13 14 12 12 12 12 12 12 12 12 13 13 14 14 13 13 12 12 11 11 11 12 12 12 13 13 14 14 15 15 16 16 16 17 17 17 17 17 17
19 19 20 22 22 22 21 21 20 19 19 18 17 16 16 16 15 14 13 13 12 12 12 13 14 14 14 14 14 13 13 12 12 12 12 13 13 12 13 14 13 13 13 13 11 10 12 13 13 12 13 13 12 12 13 14 14 14 15 15 15 14 13 13 13 12 12 13 13 14 14 15 15 16 17 17 18 18 18 19 19 19 19 19 19
20 19 20 21 21 21 20 19 18 18 17 17 16 16 16 16 15 15 14 13 13 12 12 13 13 14 15 16 16 15 15 14 14 14 14 15 15 15 16 16 14 14 15 14 13 12 11 12 13 13 14 16 14 15 16 16 16 16 16 16 16 15 15 14 14 14 14 14 15 15 16 17 17 18 18 19 20 20 20 20 20 20 21 21 22
20 20 21 21 20 20 19 18 17 17 16 16 16 15 16 16 16 15 15 14 14 14 13 13 14 14 16 16 17 17 17 16 16 16 16 16 17 18 18 17 16 16 16 15 14 14 12 12 13 14 15 17 17 17 17 18 17 17 17 17 17 16 16 16 15 16 16 17 18 18 18 18 19 20 21 21 22 22 22 21 21 22 23 24 25
21 21 22 22 22 21 20 18 17 17 16 16 16 15 16 16 16 15 16 15 15 15 14 14 15 15 16 17 17 17 17 17 17 17 17 17 19 20 19 18 18 17 18 18 17 16 15 14 15 15 16 18 18 18 18 18 19 19 18 18 18 17 17 17 17 18 19 20 20 20 21 21 22 22 23 23 24 24 24 23 24 25 26 27 28
22 22 24 24 23 22 20 19 18 17 17 17 16 16 16 17 16 16 16 16 15 15 15 15 15 16 16 16 17 17 17 17 17 17 18 18 20 21 20 19 19 18 18 19 19 18 17 16 16 17 17 17 18 19 19 19 20 20 20 20 19 19 19 19 19 20 21 22 23 23 23 23 23 24 24 25 25 25 25 26 26 28 29 30 30
23 23 25 25 24 22 20 19 18 18 18 17 17 17 17 17 17 17 17 16 15 15 16 16 16 16 16 16 16 17 18 18 18 18 19 21 21 21 21 20 20 19 18 19 19 19 19 18 17 18 18 18 18 19 20 21 21 21 21 21 20 20 20 20 21 22 23 24 25 25 25 25 25 25 25 26 27 27 28 28 29 30 31 33 33
23 23 24 24 23 22 20 18 17 17 17 17 17 18 18 17 17 17 17 17 16 16 16 16 17 17 17 17 18 19 19 20 19 19 21 22 22 22 22 22 22 21 20 19 18 18 19 19 19 18 19 19 20 20 20 20 22 22 21 21 22 23 23 22 22 23 25 27 28 27 27 26 26 26 27 28 28 29 30 30 31 32 34 35 35
23 22 22 22 21 21 19 18 17 16 17 18 19 19 18 18 18 18 18 18 18 18 18 18 18 18 18 19 19 19 20 20 20 20 20 20 21 22 22 22 23 22 21 20 20 19 19 20 20 20 20 20 21 21 20 19 21 23 23 22 22 23 24 23 23 23 25 28 30 30 29 29 28 28 28 29 31 32 32 32 33 35 36 37 38
22 22 23 23 22 20 18 19 20 18 18 19 19 19 19 19 19 19 19 19 19 19 19 19 19 19 20 20 19 19 20 20 21 21 21 21 21 22 22 22 23 24 24 23 23 22 21 21 21 21 22 22 22 23 23 22 22 23 25 26 25 25 25 26 27 27 28 29 30 30 30 31 31 31 31 32 33 34 34 34 35 37 38 39 40
21 22 23 23 21 19 17 19 20 20 19 20 20 20 20 20 20 20 21 21 21 21 21 20 21 21 21 20 19 19 20 20 21 21 21 22 22 22 23 24 25 25 25 25 24 24 24 24 24 24 24 25 24 25 26 26 26 26 26 27 27 28 29 29 29 30 30 31 32 32 32 34 35 36 35 35 36 37 37 37 37 38 39 41 42
21 21 22 21 20 20 18 19 20 21 21 21 20 20 20 20 21 21 22 22 22 23 23 23 23 23 22 21 20 19 19 20 20 21 22 22 22 23 24 25 26 26 25 25 25 25 25 26 26 26 26 27 27 27 28 28 29 30 30 30 30 31 32 32 33 32 32 32 33 33 35 36 37 37 38 39 40 40 41 41 40 41 42 44 46
23 22 22 21 21 21 21 23 23 23 22 21 20 21 20 20 21 22 23 23 24 25 25 25 24 23 23 22 22 21 20 21 21 22 23 24 24 25 25 26 26 26 26 26 26 27 27 27 27 28 28 28 28 28 29 30 31 32 32 33 34 35 35 36 36 35 35 36 37 38 39 39 39 39 40 40 41 43 44 44 44 44 45 46 47
24 24 23 22 22 23 24 25 25 23 22 21 20 20 20 21 22 23 23 24 25 26 27 26 24 23 23 23 23 23 22 22 23 24 25 26 26 26 26 26 26 26 27 27 28 28 28 28 28 29 29 29 28 28 30 32 33 34 34 35 37 38 39 39 38 38 39 41 42 42 42 41 42 43 43 43 44 45 45 44 45 46 47 47 49
23 24 24 23 22 23 24 24 24 23 23 22 21 21 22 23 24 24 24 25 26 27 27 27 25 25 24 25 25 25 24 23 24 26 26 25 26 26 25 25 24 24 26 27 28 28 28 28 29 30 31 31 31 32 33 34 35 35 36 37 38 39 39 39 40 40 42 43 43 44 44 45 47 48 47 48 49 49 48 47 48 50 51 52 54
23 23 24 23 21 21 22 23 23 23 23 23 22 23 24 25 25 27 27 26 27 28 28 27 27 26 27 27 27 27 26 26 27 28 27 24 24 25 25 25 24 25 26 28 29 30 30 31 32 32 34 34 35 36 36 36 37 36 36 36 37 39 39 39 41 42 44 45 46 46 47 48 49 50 51 52 52 52 52 53 55 56 58 59 59
22 20 20 19 19 20 21 21 23 23 24 25 25 25 27 27 28 29 28 28 28 29 29 28 27 28 29 29 29 28 27 27 28 29 29 28 27 27 27 28 28 29 30 30 30 31 32 33 34 35 37 37 38 39 39 40 41 40 39 38 39 42 44 45 47 47 48 48 48 49 50 51 52 54 56 57 58 58 59 61 62 62 63 63 63
18 18 17 18 20 21 22 23 24 24 25 26 27 28 30 31 31 31 30 29 30 31 30 29 30 31 31 31 29 27 27 28 28 29 30 32 31 30 30 30 31 31 32 32 33 34 35 35 36 37 39 40 42 43 44 45 45 44 42 42 43 46 50 51 51 50 50 52 54 55 56 57 58 59 60 61 62 62 63 63 63 63 64 65 66
18 19 19 20 21 22 22 23 24 25 26 27 28 29 31 32 32 33 32 32 32 31 30 30 30 31 30 28 27 27 28 29 29 30 32 33 33 32 32 32 32 32 33 34 36 37 38 38 39 40 42 44 45 46 47 48 47 47 46 47 48 51 53 53 54 54 55 57 59 60 59 59 59 60 61 62 62 61 60 59 59 59 60 61 63
17 19 20 20 20 21 21 21 22 23 24 25 26 27 27 27 27 27 27 27 28 26 25 25 24 25 25 25 26 27 28 29 30 30 31 33 34 35 34 34 33 33 34 36 37 39 41 42 43 44 46 47 47 48 50 51 51 51 52 52 54 55 56 57 58 59 59 60 60 60 60 59 58 58 57 57 56 55 53 52 53 54 55 57 60
Wind_Direction
274 274 273 270 260 251 254 255 252 255 259 263 266 267 268 267 266 262 258 259 261 263 271 285 294 291 286 285 292 290 277 281 291 306 309 303 306 308 306 306 307 305 298 289 281 275 270 263 254 247 243 244 243 241 239 240 244 248 254 258 261 261 262 263 266 268 268 267 267 269 271 273 275 277 277 278 279 280 280 278 277 277 278 279 279
271 270 269 263 249 244 246 248 250 251 254 259 265 267 268 267 267 266 263 262 263 267 279 293 290 279 277 282 285 291 295 293 294 302 306 304 308 309 305 305 308 306 297 284 274 272 270 265 258 251 245 244 246 245 243 244 246 249 253 257 261 262 264 265 265 266 267 267 267 268 270 272 273 274 275 275 276 276 276 276 275 275 276 277 279
268 266 264 255 242 242 243 243 246 246 253 257 264 270 270 270 269 269 268 265 264 273 292 288 276 267 270 280 281 293 318 309 298 300 308 312 311 310 309 307 306 303 295 280 270 272 271 267 263 256 250 247 246 247 246 246 248 250 252 254 257 260 262 264 265 267 269 270 271 271 272 273 273 274 274 274 274 274 274 274 273 273 274 275 277
265 262 258 245 235 239 240 241 237 237 254 254 260 270 271 272 269 269 269 267 268 279 281 266 262 264 269 277 278 295 319 305 300 302 311 318 317 318 318 313 309 304 296 279 270 276 277 271 265 258 253 251 251 251 250 250 250 251 253 254 258 261 265 267 270 274 276 278 278 277 276 275 274 273 273 273 272 272 271 271 270 270 270 270 271
262 255 245 231 230 233 232 238 236 240 255 248 247 260 262 267 266 265 271 276 278 278 272 264 263 267 271 276 279 293 303 297 298 298 306 319 326 330 330 327 326 322 316 292 289 303 301 288 273 263 256 253 253 253 254 256 257 258 258 260 264 268 272 276 280 283 284 284 285 284 282 280 279 278 277 276 274 272 271 269 268 266 266 266 266
259 248 230 219 223 221 218 234 241 245 256 244 239 249 248 254 257 259 272 280 278 275 271 265 262 264 268 273 279 285 290 304 297 289 301 318 328 335 345 347 342 348 24 38 347 336 333 325 297 269 256 253 253 255 258 261 262 262 262 265 268 273 279 285 289 291 293 293 293 293 292 291 290 288 287 285 282 278 274 270 266 264 263 262 263
251 236 220 215 216 210 212 241 249 248 255 240 234 241 238 239 244 252 262 267 269 271 266 262 260 259 262 267 273 276 277 293 282 274 289 313 329 338 354 2 358 3 10 7 1 2 5 4 357 298 243 239 247 258 267 270 270 265 264 265 268 273 280 286 292 296 299 300 301 302 302 303 302 301 300 299 295 288 281 275 269 265 262 261 262
236 225 217 211 209 208 223 257 255 251 252 234 227 233 231 233 240 249 258 260 261 260 260 262 263 261 261 264 265 264 259 266 267 261 281 316 335 342 359 11 15 21 23 40 45 28 27 28 30 38 156 171 214 267 288 287 285 276 271 269 271 276 282 288 294 298 301 302 304 307 309 311 311 310 309 310 308 297 287 284 279 272 266 262 261
234 234 221 206 204 213 235 254 249 250 241 221 224 232 228 232 239 246 256 260 255 251 255 260 262 259 258 261 259 256 258 269 266 262 295 330 332 339 354 359 10 42 68 69 55 39 47 54 54 67 96 105 113 125 346 300 292 286 281 278 278 282 288 294 299 301 302 304 308 313 316 317 316 316 315 317 317 305 291 291 290 282 273 265 263
238 235 217 208 215 232 245 249 248 246 228 218 236 238 229 233 238 246 254 256 252 249 251 253 254 254 252 255 257 252 245 240 251 266 303 325 321 331 338 349 20 60 72 35 26 44 53 51 61 75 86 83 75 82 74 312 293 283 278 279 283 285 290 297 301 305 308 313 319 322 323 323 322 322 322 324 325 317 303 298 296 291 283 274 268
234 227 221 221 229 243 253 250 247 238 228 233 246 241 236 236 238 249 253 248 246 246 247 246 245 249 249 248 246 236 232 235 248 271 302 306 304 323 330 357 38 31 24 24 34 34 11 9 32 54 75 67 41 37 46 352 299 287 289 293 297 300 305 310 315 318 319 322 325 326 326 326 326 326 327 327 326 324 316 306 303 301 295 287 280
235 229 234 232 235 250 259 250 242 235 237 243 241 239 240 240 243 249 248 244 242 244 246 246 245 248 247 245 242 236 244 255 256 269 289 286 289 306 302 348 13 343 353 29 44 11 1 20 18 42 96 338 337 2 33 328 318 327 315 317 325 326 328 332 332 329 325 323 324 325 328 328 328 329 333 336 332 328 326 321 318 317 309 299 291
233 229 235 235 239 248 249 243 236 230 237 242 239 240 237 236 243 243 241 241 238 237 241 243 245 245 243 245 245 239 245 243 233 255 271 269 278 294 251 271 321 314 304 313 350 339 342 33 37 63 19 320 322 336 331 313 325 344 329 327 332 333 336 338 337 332 327 324 323 325 330 331 331 334 338 343 342 336 333 331 330 328 320 308 297
235 238 243 243 243 240 234 234 231 225 230 236 238 241 235 234 239 240 243 241 236 236 241 242 242 241 240 244 242 240 247 240 233 254 263 259 270 280 257 279 301 288 256 246 282 296 284 300 356 327 312 314 308 308 307 297 304 324 326 326 328 332 335 336 333 327 320 318 319 325 330 331 333 338 342 345 346 343 337 331 328 328 327 321 310
246 248 246 242 245 242 234 227 226 229 230 230 237 240 238 238 236 239 245 243 240 242 246 246 243 241 242 245 249 254 258 256 258 264 265 266 275 271 261 270 279 265 248 243 261 277 275 270 269 292 302 298 289 287 285 282 290 302 309 314 319 322 322 319 315 311 308 310 318 324 326 329 333 338 342 344 345 345 343 337 330 328 328 328 325
248 247 240 235 245 251 245 234 231 240 239 234 242 245 243 241 238 239 242 243 244 245 247 248 244 242 244 251 261 268 269 272 271 263 262 272 280 275 267 270 271 259 249 243 254 268 268 268 281 294 289 279 281 284 284 284 284 286 286 291 298 298 295 295 297 299 300 303 314 319 318 323 331 334 336 337 337 337 339 338 335 331 328 327 326
247 247 242 239 248 255 259 258 249 246 249 245 245 248 246 243 240 239 240 242 245 249 251 251 248 247 251 259 269 275 278 282 275 264 265 272 273 270 270 274 270 257 253 258 266 269 269 271 279 276 266 269 277 282 286 284 276 273 273 275 278 277 282 290 293 296 297 299 308 311 313 317 323 326 326 327 327 325 326 325 324 323 320 319 315
248 246 241 242 252 255 254 254 241 240 256 255 248 249 244 240 240 239 240 242 245 251 255 256 258 258 261 269 274 277 281 282 276 270 273 275 269 266 269 270 263 258 263 268 272 276 273 270 269 262 262 266 271 276 282 276 270 270 272 274 275 275 282 291 294 298 297 296 301 303 308 312 314 318 320 320 320 316 314 311 307 306 302 298 295
253 247 245 251 254 247 244 244 237 244 254 246 239 242 240 238 239 240 242 244 248 254 257 260 266 268 270 273 275 276 278 277 274 273 275 275 269 269 270 265 260 262 265 266 272 276 272 269 266 261 265 269 271 276 278 274 272 274 279 284 285 285 287 291 294 299 299 296 297 300 308 312 311 316 318 319 318 312 308 304 298 294 290 288 287
254 249 252 259 253 242 244 248 248 253 250 239 233 235 238 239 240 243 246 249 252 256 259 263 268 273 274 273 272 272 272 272 273 274 274 271 269 270 267 262 263 264 261 264 275 280 277 278 275 271 276 281 283 284 280 278 279 283 289 290 287 284 284 286 291 298 302 304 308 309 313 314 313 314 312 312 310 306 303 301 297 293 290 289 290
250 244 250 260 255 246 246 248 248 250 246 241 238 237 238 241 243 245 248 251 255 257 260 262 266 270 270 268 268 267 267 270 272 275 277 274 271 271 267 268 271 265 261 271 283 285 289 291 288 290 293 289 286 286 285 286 287 289 288 282 277 276 277 281 288 294 300 304 308 310 309 309 309 307 304 302 300 299 298 296 296 295 293 293 292
241 237 251 261 255 248 247 247 246 245 244 242 239 239 240 240 242 244 246 250 252 254 257 259 261 264 263 264 267 270 270 268 267 269 271 269 268 271 274 275 274 270 271 281 279 273 279 286 291 297 293 285 285 287 289 290 289 285 277 269 266 265 268 271 278 286 292 297 299 299 299 299 301 301 300 298 296 295 295 294 292 291 292 291 291
236 239 255 260 255 254 251 248 246 243 243 240 238 240 240 239 239 240 243 247 250 252 256 257 257 257 260 265 270 273 271 268 265 263 263 264 266 271 273 271 271 274 276 276 268 263 273 284 286 284 280 284 290 291 289 287 282 274 266 261 258 257 259 263 269 277 283 286 288 287 289 292 295 299 299 299 297 296 295 292 288 284 283 283 283
240 247 255 256 255 256 252 249 246 243 241 240 239 239 238 237 236 235 238 243 245 248 252 256 256 256 259 264 266 266 266 267 266 264 264 263 263 268 266 260 262 272 273 270 268 270 279 279 273 271 277 285 288 285 283 279 272 265 259 255 252 252 253 259 267 272 275 276 277 279 282 286 291 295 297 298 297 296 293 289 284 279 276 275 275
246 249 250 252 252 251 249 247 244 241 240 240 239 236 231 228 229 231 233 238 243 246 249 254 256 257 260 262 261 260 259 261 264 266 265 262 264 268 263 253 261 272 271 268 270 274 275 268 264 267 273 275 275 275 274 270 263 259 255 252 249 251 254 260 266 268 269 271 273 276 279 284 288 290 291 293 293 292 288 285 281 277 273 272 270
240 240 242 247 247 245 245 244 243 242 242 240 237 230 224 221 224 228 229 236 245 251 254 258 260 260 261 261 260 259 257 258 261 262 261 260 265 267 256 250 266 276 268 264 268 268 263 259 257 258 260 260 262 265 264 261 257 253 251 250 250 251 253 257 261 263 265 268 271 276 278 279 280 282 285 287 286 286 284 281 278 276 273 270 267
228 232 238 242 243 243 244 244 244 243 241 238 231 224 221 221 223 229 234 240 249 257 261 264 264 262 261 261 261 262 263 262 261 261 262 262 265 264 254 253 267 271 259 256 259 256 253 253 253 251 251 254 256 257 257 256 254 251 250 251 251 252 254 256 258 262 265 268 272 274 275 275 276 277 279 281 283 285 283 279 276 274 272 269 267
223 231 237 239 240 242 244 244 243 240 237 235 228 222 222 224 227 234 240 244 249 254 260 262 262 261 260 262 264 264 264 263 263 263 263 264 266 264 258 258 266 264 253 251 253 252 251 254 259 263 262 261 258 256 257 257 256 256 255 254 254 254 255 255 256 260 263 267 270 272 273 273 274 276 278 280 283 283 280 277 275 274 272 269 267
226 232 235 238 241 243 243 243 241 237 234 232 229 225 225 228 233 239 243 246 248 249 251 254 258 261 262 265 264 262 259 258 259 261 263 265 265 262 262 262 262 259 255 254 255 257 256 258 265 269 271 270 266 263 261 261 262 262 261 260 260 259 259 258 257 260 263 265 266 268 271 273 275 278 280 281 282 282 280 279 278 277 275 272 269
228 231 234 237 241 244 244 241 238 235 232 230 229 229 230 232 237 244 247 249 249 249 250 253 257 262 264 264 261 258 256 255 256 258 260 262 261 262 266 264 257 258 260 259 260 267 269 270 268 265 266 266 266 265 264 265 265 264 265 265 265 264 262 262 262 263 265 265 266 267 269 273 276 279 282 284 285 284 283 283 282 281 279 277 275
229 231 235 238 242 244 242 238 235 233 230 229 228 231 233 233 238 246 250 250 251 250 252 256 259 261 262 261 258 258 258 259 260 260 261 261 261 264 266 264 263 267 269 265 259 265 274 279 273 267 266 262 261 264 264 266 267 267 269 270 269 269 269 269 272 273 273 273 272 273 274 277 280 283 287 289 290 290 290 289 288 286 284 281 279
230 231 235 238 241 242 239 236 233 230 229 229 229 232 234 235 239 247 252 252 253 252 251 253 255 257 259 259 260 260 260 261 262 261 261 263 264 265 266 269 275 276 273 268 256 253 265 275 273 266 265 263 261 264 266 267 269 270 272 273 273 274 275 278 280 280 280 281 282 281 281 283 286 288 291 293 293 294 294 293 291 289 286 284 282
229 229 234 238 240 238 236 234 231 229 229 230 232 235 238 240 243 249 253 255 255 256 255 252 251 252 255 259 263 265 264 261 259 257 259 262 264 265 268 273 277 277 273 271 265 256 257 267 272 270 271 272 269 268 270 270 270 272 273 275 277 279 281 283 284 284 284 285 286 286 286 286 288 289 291 292 293 293 293 292 290 289 287 285 283
227 229 234 236 235 233 232 232 230 230 231 233 236 240 243 246 248 252 255 257 258 259 260 259 257 256 257 261 265 269 270 267 264 263 264 267 268 267 270 274 276 275 274 274 273 269 262 264 272 275 276 277 274 270 272 272 272 274 275 277 279 281 284 285 286 287 287 287 286 286 287 287 287 287 288 288 289 289 289 288 287 286 285 284 284
226 229 230 230 230 230 232 233 233 234 236 237 239 242 245 247 249 253 255 258 261 262 264 264 264 263 263 265 268 272 273 273 272 272 273 273 272 271 273 276 276 274 275 274 272 270 267 264 267 267 268 273 273 272 275 276 276 276 277 278 279 280 283 285 287 288 287 287 287 286 286 286 285 284 284 285 286 286 286 285 284 283 282 282 283
225 226 225 225 228 230 233 236 237 240 241 241 241 242 243 245 246 248 252 257 263 266 268 267 267 267 268 270 272 275 276 276 277 279 277 274 275 277 277 275 275 274 275 276 274 273 271 269 269 267 265 269 274 275 276 277 278 277 276 276 277 279 282 285 287 289 288 287 288 288 287 286 285 285 285 285 285 285 285 284 282 281 281 282 283
227 226 225 227 231 234 236 236 238 242 243 242 242 240 239 240 242 245 251 257 263 267 269 270 270 271 271 272 275 277 277 277 279 279 276 274 278 282 279 274 274 273 272 274 276 277 276 273 272 272 269 269 274 277 278 277 277 278 277 277 278 281 285 287 289 289 289 290 291 290 288 287 286 286 286 286 286 286 285 284 283 283 283 283 284
232 230 227 228 234 238 238 237 240 244 245 243 240 237 236 238 241 246 251 256 259 262 266 269 270 271 272 274 275 276 277 278 280 278 276 277 280 279 277 275 274 270 267 267 270 273 275 273 272 273 275 274 274 276 278 278 278 278 279 282 284 286 288 289 290 290 290 290 290 289 287 286 286 286 286 286 286 286 285 284 284 284 283 282 282
235 232 228 229 234 238 237 238 242 244 241 238 236 235 236 240 244 248 251 255 257 260 263 265 267 269 272 273 275 278 280 281 281 280 278 279 280 278 277 276 275 271 267 266 267 270 273 276 276 277 278 279 277 275 277 280 281 282 283 287 290 291 291 290 290 292 292 292 291 288 286 285 284 284 285 285 284 284 283 282 282 281 280 281 281
236 230 226 229 234 235 235 237 240 239 237 236 237 238 240 243 248 250 252 254 257 259 261 262 265 268 270 272 276 280 282 282 282 281 280 280 279 279 277 276 275 274 272 271 272 272 272 274 276 277 278 278 278 278 279 282 282 283 285 288 289 288 287 287 288 290 291 291 290 288 286 286 285 285 284 283 281 280 280 280 279 279 279 279 280
235 227 226 230 233 234 236 238 234 232 236 239 240 241 243 245 249 250 252 253 256 258 260 261 264 266 268 271 275 279 281 282 282 281 281 281 280 279 278 275 275 275 275 275 275 275 273 272 271 271 272 274 276 279 281 282 281 281 284 286 287 285 282 283 286 288 288 285 283 281 282 283 284 284 283 281 280 279 279 279 278 277 278 279 280
235 230 231 234 233 232 237 237 231 231 237 241 242 244 246 248 250 251 253 254 256 258 259 261 263 263 266 270 275 280 283 284 284 283 283 283 281 280 278 275 273 272 273 275 276 276 276 275 273 273 274 276 278 280 281 281 281 281 282 283 283 282 281 283 286 286 284 281 279 278 279 281 284 285 285 283 281 281 280 280 279 279 279 280 280
237 235 235 235 232 231 233 234 234 237 240 242 244 247 250 253 254 255 256 257 258 259 261 262 263 264 266 269 273 279 282 283 282 281 280 279 278 276 276 275 274 274 274 274 274 274 275 276 276 277 278 279 280 281 283 283 283 283 283 283 282 281 281 282 283 281 278 277 277 277 277 279 281 284 285 284 283 283 284 283 282 280 281 281 281
234 233 232 230 229 228 229 232 237 241 244 246 248 250 252 255 257 257 258 258 260 262 263 264 265 265 266 267 270 273 276 279 279 279 278 276 273 271 271 272 274 275 274 273 273 272 273 275 276 277 277 278 280 282 283 285 286 286 286 286 285 285 285 285 284 282 280 281 281 280 278 278 279 281 282 282 281 283 285 285 284 283 284 284 284
231 232 233 231 230 230 231 236 241 246 249 249 249 252 255 258 259 259 259 258 258 260 262 264 266 267 267 267 268 269 273 277 279 279 277 274 272 271 271 271 271 271 273 274 274 274 274 274 274 274 274 276 279 282 284 286 287 288 289 289 289 289 290 289 287 287 288 289 288 286 283 282 284 286 286 284 283 283 284 284 284 283 282 282 281
227 231 235 237 236 237 239 242 246 249 250 249 250 255 260 262 262 261 259 258 258 259 261 263 266 269 270 270 269 268 269 273 275 274 272 271 272 272 271 271 270 270 272 273 274 275 275 274 274 275 276 277 280 285 287 288 289 290 292 293 292 291 290 289 288 289 291 291 289 286 285 286 288 289 288 287 286 286 285 284 283 282 282 281 281
230 232 236 238 238 240 243 245 246 247 248 250 253 258 262 263 263 262 260 260 261 263 264 264 266 268 271 272 273 272 272 273 273 271 268 267 270 271 271 271 273 274 275 275 275 275 276 276 277 278 280 281 283 287 289 289 291 293 293 292 291 289 287 286 286 288 289 288 287 285 286 288 288 288 287 287 286 285 284 284 284 284 284 284 283
233 234 235 236 236 239 241 242 243 244 246 249 252 254 255 256 257 257 258 258 260 263 265 267 267 268 271 272 273 272 271 269 267 265 263 264 269 272 272 273 274 277 278 278 278 277 277 277 278 279 281 283 285 287 289 289 290 291 290 288 286 284 283 284 285 285 285 284 282 282 283 285 285 285 286 285 284 284 284 285 286 285 284 284 284
228 230 231 233 236 239 241 240 240 242 244 247 251 253 254 254 254 255 257 259 260 262 265 267 268 268 269 268 267 266 264 262 258 255 256 260 265 270 273 274 275 277 279 280 280 280 281 281 282 282 284 286 287 288 288 289 289 290 289 287 282 280 282 284 285 285 283 281 281 281 283 285 286 286 285 285 284 285 286 286 286 285 284 284 284
222 227 230 233 235 237 238 238 239 242 245 248 251 254 257 259 260 260 259 258 258 260 262 263 265 266 265 263 261 260 260 259 256 253 253 256 262 267 273 276 276 277 277 278 280 281 283 284 285 286 286 287 288 289 289 289 289 288 287 285 282 282 283 284 285 284 283 283 283 284 285 286 286 286 286 286 286 287 287 286 284 283 283 283 283
227 230 232 235 237 238 240 242 244 247 250 252 254 255 258 260 262 261 259 257 257 257 257 258 260 262 260 258 257 258 258 259 259 258 257 260 264 269 274 276 277 277 278 278 279 280 282 284 285 285 285 285 286 286 286 286 286 285 284 284 283 283 283 284 284 283 283 284 285 286 286 286 285 285 285 285 284 284 284 283 282 282 282 283 285
Height
5834 5834 5835 5835 5835 5835 5835 5835 5835 5835 5835 5836 5837 5837 5838 5838 5838 5838 5838 5837 5837 5837 5838 5840 5841 5839 5838 5839 5839 5839 5839 5839 5840 5839 5838 5838 5837 5837 5836 5836 5835 5834 5834 5834 5834 5834 5835 5835 5835 5834 5835 5835 5835 5836 5836 5836 5837 5837 5837 5837 5837 5837 5837 5837 5837 5837 5837 5837 5836 5836 5836 5836 5835 5835 5834 5834 5834 5834 5833 5833 5833 5832 5832 5832 5832
5832 5832 5832 5833 5834 5834 5834 5834 5834 5834 5834 5834 5835 5836 5837 5837 5837 5837 5836 5836 5835 5836 5838 5840 5839 5838 5838 5838 5838 5838 5839 5838 5838 5837 5837 5836 5836 5836 5835 5835 5834 5833 5833 5833 5833 5833 5833 5833 5833 5833 5833 5833 5834 5834 5835 5835 5835 5836 5836 5836 5836 5836 5836 5836 5836 5836 5835 5835 5835 5835 5834 5834 5834 5833 5833 5833 5832 5832 5832 5831 5831 5831 5831 5831 5831
5830 5830 5831 5832 5833 5833 5833 5833 5834 5834 5833 5832 5833 5834 5835 5835 5835 5835 5835 5833 5833 5836 5838 5838 5837 5836 5837 5837 5836 5837 5838 5837 5836 5836 5836 5835 5835 5835 5834 5833 5833 5832 5832 5832 5832 5832 5832 5832 5832 5832 5832 5832 5833 5833 5833 5834 5834 5835 5835 5835 5835 5835 5835 5835 5834 5834 5834 5834 5834 5834 5833 5833 5832 5832 5832 5831 5831 5830 5830 5830 5830 5829 5829 5829 5829
5828 5829 5829 5831 5832 5832 5832 5832 5833 5833 5832 5831 5831 5832 5833 5833 5834 5834 5833 5831 5832 5836 5837 5837 5836 5835 5836 5836 5835 5835 5836 5836 5835 5835 5834 5834 5834 5834 5833 5832 5832 5831 5831 5831 5831 5831 5831 5831 5831 5831 5831 5831 5832 5832 5832 5833 5833 5833 5833 5833 5833 5834 5834 5833 5833 5833 5833 5833 5833 5832 5832 5831 5831 5831 5830 5830 5829 5829 5828 5828 5828 5828 5828 5827 5827
5826 5827 5828 5829 5829 5830 5831 5832 5832 5831 5831 5830 5829 5830 5831 5832 5832 5832 5831 5829 5832 5835 5836 5835 5834 5834 5835 5835 5834 5835 5836 5835 5835 5834 5833 5833 5834 5833 5833 5832 5831 5830 5830 5830 5830 5831 5831 5830 5830 5830 5830 5830 5831 5831 5831 5832 5832 5832 5832 5832 5832 5832 5832 5832 5832 5832 5832 5832 5831 5831 5831 5830 5830 5829 5829 5829 5828 5827 5827 5827 5826 5826 5826 5826 5826
5823 5824 5826 5827 5828 5829 5830 5831 5830 5830 5829 5829 5828 5829 5830 5830 5831 5831 5830 5830 5832 5834 5834 5833 5833 5833 5833 5833 5834 5834 5834 5834 5834 5833 5833 5833 5833 5833 5832 5831 5830 5830 5830 5830 5830 5830 5830 5830 5829 5829 5829 5829 5830 5830 5831 5831 5831 5831 5831 5831 5831 5831 5831 5831 5831 5831 5831 5830 5830 5830 5829 5829 5828 5828 5828 5827 5827 5826 5826 5825 5825 5824 5824 5824 5824
5822 5823 5824 5825 5827 5828 5829 5829 5828 5829 5828 5828 5828 5828 5828 5829 5829 5829 5829 5830 5831 5832 5832 5831 5831 5832 5832 5832 5833 5834 5834 5833 5833 5833 5832 5832 5832 5832 5831 5830 5829 5829 5830 5830 5830 5830 5830 5829 5829 5829 5829 5829 5829 5830 5830 5830 5830 5830 5830 5831 5831 5831 5830 5830 5830 5830 5829 5829 5829 5829 5828 5828 5827 5827 5826 5826 5825 5825 5824 5823 5823 5822 5822 5822 5822
5821 5822 5823 5824 5825 5827 5827 5827 5827 5827 5827 5827 5827 5827 5828 5828 5828 5829 5829 5829 5830 5830 5829 5828 5830 5831 5832 5832 5832 5833 5833 5833 5832 5832 5832 5831 5831 5831 5830 5830 5829 5829 5830 5830 5830 5830 5829 5829 5829 5829 5829 5829 5829 5829 5829 5829 5829 5829 5830 5830 5830 5830 5830 5829 5829 5829 5828 5828 5828 5828 5827 5827 5826 5826 5825 5824 5823 5822 5822 5821 5821 5821 5821 5821 5821
5820 5821 5822 5823 5824 5825 5826 5826 5826 5826 5827 5826 5825 5826 5827 5827 5827 5828 5828 5828 5828 5828 5827 5827 5829 5830 5831 5831 5831 5832 5832 5832 5831 5831 5831 5831 5830 5830 5830 5829 5829 5829 5829 5830 5829 5829 5829 5829 5829 5829 5828 5828 5828 5829 5829 5828 5829 5829 5829 5829 5829 5829 5829 5828 5828 5828 5827 5827 5827 5827 5826 5826 5825 5824 5824 5823 5822 5820 5820 5820 5819 5819 5819 5819 5819
5819 5820 5821 5822 5823 5824 5824 5824 5825 5825 5825 5825 5824 5825 5825 5826 5826 5827 5827 5827 5826 5826 5826 5827 5828 5829 5829 5830 5830 5831 5831 5832 5831 5830 5830 5830 5829 5829 5829 5829 5829 5829 5829 5829 5829 5829 5829 5829 5829 5828 5828 5828 5828 5828 5828 5828 5828 5828 5828 5828 5828 5828 5827 5827 5827 5827 5826 5826 5826 5826 5825 5825 5824 5823 5822 5821 5820 5819 5819 5819 5818 5818 5817 5817 5817
5818 5819 5820 5821 5822 5823 5823 5823 5823 5824 5823 5823 5823 5823 5824 5824 5825 5825 5826 5825 5825 5824 5825 5826 5827 5827 5828 5828 5828 5829 5829 5830 5829 5829 5829 5829 5829 5829 5829 5829 5829 5829 5829 5829 5829 5829 5829 5829 5828 5828 5828 5828 5828 5828 5827 5827 5827 5827 5827 5827 5827 5827 5826 5826 5826 5826 5825 5825 5825 5825 5824 5824 5823 5822 5821 5820 5820 5819 5818 5818 5817 5817 5817 5816 5816
5817 5818 5819 5821 5822 5822 5821 5821 5822 5822 5822 5822 5822 5822 5823 5823 5823 5824 5824 5823 5823 5823 5823 5825 5825 5826 5826 5826 5826 5827 5827 5828 5828 5828 5828 5828 5828 5828 5828 5828 5828 5829 5829 5829 5829 5829 5829 5828 5828 5828 5828 5828 5828 5827 5827 5826 5826 5826 5826 5826 5826 5825 5825 5825 5825 5825 5825 5824 5824 5824 5823 5823 5822 5821 5820 5820 5819 5818 5818 5817 5817 5816 5816 5815 5815
5816 5817 5817 5819 5819 5819 5820 5820 5820 5820 5821 5821 5821 5821 5822 5822 5823 5823 5823 5822 5822 5822 5823 5823 5823 5824 5824 5824 5824 5825 5826 5827 5828 5828 5828 5828 5827 5828 5828 5828 5828 5828 5828 5828 5828 5828 5828 5828 5828 5828 5828 5828 5827 5827 5826 5826 5826 5826 5825 5825 5825 5824 5824 5824 5824 5824 5824 5824 5823 5823 5822 5822 5821 5820 5820 5819 5818 5818 5817 5817 5816 5816 5815 5814 5814
5815 5815 5816 5816 5816 5817 5818 5819 5819 5818 5819 5819 5819 5820 5820 5820 5821 5821 5821 5821 5821 5821 5822 5822 5822 5822 5822 5823 5823 5824 5825 5826 5826 5827 5827 5827 5826 5827 5827 5827 5827 5827 5828 5828 5828 5828 5828 5828 5828 5827 5827 5827 5827 5826 5826 5825 5825 5825 5824 5824 5824 5824 5824 5824 5824 5823 5823 5823 5823 5822 5822 5821 5820 5820 5819 5819 5818 5817 5817 5817 5816 5815 5815 5814 5813
5813 5814 5814 5814 5815 5815 5816 5816 5817 5817 5817 5818 5818 5818 5818 5819 5820 5820 5820 5820 5820 5819 5820 5821 5821 5821 5821 5821 5822 5822 5823 5824 5825 5825 5825 5825 5825 5826 5826 5826 5826 5826 5827 5827 5827 5827 5827 5827 5827 5827 5827 5826 5826 5826 5825 5825 5824 5824 5824 5823 5823 5823 5823 5823 5823 5822 5822 5822 5822 5821 5821 5820 5820 5819 5819 5818 5818 5817 5817 5816 5816 5815 5814 5813 5813
5812 5813 5813 5813 5814 5814 5814 5814 5815 5815 5815 5815 5816 5816 5817 5817 5818 5819 5819 5819 5819 5819 5819 5820 5820 5820 5820 5820 5821 5821 5822 5822 5823 5823 5823 5823 5824 5825 5825 5825 5825 5826 5826 5826 5826 5826 5826 5826 5826 5826 5826 5825 5825 5825 5824 5824 5824 5823 5823 5823 5822 5822 5822 5822 5822 5822 5821 5821 5821 5821 5820 5819 5819 5819 5818 5818 5817 5817 5816 5816 5815 5814 5814 5813 5812
5811 5812 5812 5812 5812 5811 5811 5812 5812 5812 5813 5813 5813 5814 5815 5816 5817 5817 5818 5818 5818 5818 5818 5819 5819 5819 5819 5820 5820 5820 5820 5821 5821 5821 5822 5822 5823 5824 5824 5824 5824 5824 5824 5825 5825 5825 5825 5825 5825 5825 5824 5824 5824 5824 5823 5823 5823 5823 5822 5822 5822 5821 5821 5821 5821 5821 5821 5820 5820 5820 5819 5819 5818 5818 5817 5817 5816 5816 5816 5815 5815 5814 5813 5813 5812
5809 5810 5810 5810 5809 5809 5809 5810 5811 5811 5811 5811 5812 5813 5814 5815 5816 5816 5816 5816 5816 5816 5817 5817 5818 5818 5819 5819 5820 5819 5819 5820 5820 5820 5820 5820 5821 5822 5823 5823 5823 5823 5823 5823 5824 5824 5824 5824 5824 5823 5823 5823 5823 5822 5822 5822 5822 5822 5821 5821 5820 5820 5820 5819 5819 5820 5820 5819 5819 5819 5818 5818 5817 5817 5816 5816 5816 5815 5815 5814 5814 5813 5813 5812 5812
5805 5806 5806 5807 5807 5807 5808 5808 5809 5810 5809 5810 5811 5812 5813 5814 5814 5814 5814 5814 5814 5815 5816 5816 5817 5817 5818 5818 5819 5818 5818 5818 5819 5819 5819 5819 5819 5820 5821 5822 5822 5822 5822 5822 5822 5823 5822 5822 5822 5822 5821 5821 5821 5821 5821 5821 5821 5820 5820 5820 5819 5819 5818 5818 5818 5818 5818 5818 5818 5817 5817 5817 5816 5816 5815 5815 5814 5814 5813 5813 5813 5812 5812 5811 5811
5802 5803 5803 5804 5804 5805 5806 5807 5807 5808 5808 5809 5810 5810 5812 5813 5813 5812 5812 5812 5813 5813 5814 5814 5815 5816 5816 5817 5817 5817 5817 5817 5817 5817 5817 5817 5818 5819 5819 5820 5820 5820 5820 5821 5821 5821 5821 5820 5820 5820 5819 5819 5819 5819 5819 5819 5819 5819 5819 5818 5818 5817 5817 5817 5817 5817 5817 5816 5816 5816 5816 5816 5815 5815 5814 5814 5813 5813 5812 5812 5812 5811 5811 5811 5810
5800 5800 5801 5802 5802 5803 5804 5805 5805 5806 5807 5808 5808 5809 5810 5811 5811 5810 5811 5811 5811 5812 5812 5812 5813 5814 5814 5815 5816 5816 5816 5816 5816 5816 5816 5816 5816 5817 5818 5818 5818 5819 5819 5820 5819 5819 5819 5819 5818 5818 5818 5818 5818 5818 5818 5818 5818 5818 5817 5817 5817 5816 5816 5816 5816 5815 5815 5815 5815 5815 5814 5814 5814 5813 5813 5813 5812 5812 5812 5811 5811 5810 5810 5810 5809
5797 5798 5799 5799 5800 5801 5802 5803 5804 5805 5806 5807 5807 5807 5808 5808 5808 5808 5809 5809 5810 5810 5810 5811 5811 5812 5812 5813 5814 5814 5814 5814 5814 5814 5814 5814 5815 5815 5816 5816 5816 5817 5818 5818 5818 5818 5817 5817 5817 5817 5817 5817 5817 5817 5816 5816 5816 5816 5816 5816 5816 5815 5815 5815 5814 5814 5814 5814 5814 5813 5813 5813 5812 5812 5811 5811 5811 5811 5810 5810 5810 5809 5809 5808 5808
5796 5797 5797 5798 5799 5799 5800 5802 5803 5804 5804 5805 5805 5805 5806 5806 5806 5806 5807 5807 5808 5808 5808 5809 5810 5810 5810 5811 5811 5812 5812 5812 5812 5813 5813 5813 5813 5814 5814 5814 5814 5815 5816 5817 5817 5817 5817 5816 5815 5815 5815 5815 5815 5815 5815 5815 5815 5815 5815 5815 5814 5814 5814 5813 5813 5813 5813 5813 5812 5812 5812 5811 5811 5810 5810 5810 5809 5809 5809 5809 5808 5808 5807 5807 5807
5794 5795 5795 5796 5797 5798 5799 5800 5801 5802 5802 5803 5803 5803 5803 5804 5804 5804 5805 5806 5806 5807 5807 5807 5808 5808 5809 5809 5809 5809 5810 5810 5810 5811 5811 5812 5812 5812 5812 5813 5813 5814 5814 5815 5815 5815 5815 5814 5813 5813 5813 5813 5813 5813 5813 5813 5813 5814 5813 5813 5813 5812 5812 5812 5812 5812 5811 5811 5811 5810 5810 5809 5809 5809 5808 5808 5808 5807 5807 5807 5807 5806 5806 5806 5805
5792 5792 5793 5794 5795 5796 5797 5798 5799 5799 5799 5800 5800 5801 5801 5801 5802 5802 5803 5804 5804 5805 5805 5806 5806 5807 5807 5807 5807 5807 5808 5808 5808 5809 5809 5810 5810 5810 5811 5811 5812 5812 5812 5812 5813 5813 5813 5812 5811 5812 5812 5811 5811 5812 5812 5812 5812 5812 5812 5812 5811 5811 5811 5811 5810 5810 5810 5810 5809 5809 5808 5808 5807 5807 5807 5806 5806 5806 5805 5805 5805 5805 5805 5804 5804
5789 5790 5791 5792 5793 5794 5795 5796 5796 5796 5797 5797 5798 5798 5799 5799 5800 5800 5801 5802 5802 5803 5804 5804 5805 5805 5805 5805 5805 5805 5805 5806 5806 5807 5807 5808 5808 5808 5809 5809 5810 5810 5810 5810 5811 5811 5810 5809 5809 5810 5810 5809 5810 5810 5810 5810 5810 5810 5810 5810 5810 5810 5809 5809 5809 5809 5809 5808 5808 5807 5807 5806 5806 5805 5805 5805 5804 5804 5804 5804 5803 5803 5803 5803 5802
5787 5788 5789 5790 5791 5792 5792 5793 5793 5794 5794 5795 5796 5796 5797 5797 5798 5798 5799 5800 5800 5801 5802 5803 5804 5804 5804 5803 5803 5803 5803 5804 5804 5804 5805 5806 5806 5806 5807 5807 5808 5808 5809 5809 5809 5808 5807 5806 5807 5808 5808 5808 5808 5808 5808 5808 5808 5808 5808 5808 5808 5808 5808 5807 5807 5807 5807 5806 5806 5806 5805 5805 5804 5804 5803 5803 5802 5802 5802 5802 5802 5801 5801 5801 5800
5785 5786 5787 5788 5789 5790 5790 5791 5791 5792 5792 5793 5794 5795 5795 5796 5796 5797 5798 5798 5798 5799 5800 5801 5802 5803 5802 5802 5802 5802 5801 5802 5802 5802 5803 5803 5804 5804 5805 5805 5806 5806 5807 5807 5807 5806 5805 5805 5805 5806 5806 5806 5806 5806 5806 5806 5806 5806 5806 5806 5806 5806 5806 5805 5805 5805 5805 5805 5804 5804 5803 5803 5803 5802 5802 5801 5801 5801 5800 5800 5800 5799 5799 5799 5798
5782 5784 5784 5785 5786 5787 5788 5789 5789 5790 5790 5791 5792 5793 5793 5794 5795 5795 5796 5796 5797 5797 5798 5799 5799 5800 5801 5801 5801 5800 5800 5800 5800 5800 5801 5801 5801 5802 5802 5803 5804 5804 5805 5805 5805 5804 5803 5804 5804 5804 5804 5804 5804 5804 5804 5804 5804 5804 5804 5804 5804 5804 5803 5803 5803 5803 5803 5802 5802 5802 5802 5801 5801 5800 5800 5799 5799 5799 5799 5798 5798 5798 5797 5797 5797
5780 5781 5782 5783 5784 5785 5787 5787 5788 5788 5789 5789 5790 5791 5792 5793 5793 5794 5794 5795 5795 5796 5796 5797 5797 5798 5798 5799 5799 5798 5798 5798 5798 5799 5799 5799 5799 5800 5800 5801 5802 5803 5803 5804 5803 5802 5801 5802 5803 5802 5802 5802 5802 5802 5802 5802 5802 5802 5802 5802 5802 5801 5801 5801 5801 5800 5800 5800 5800 5800 5799 5799 5799 5798 5798 5797 5797 5797 5797 5796 5796 5796 5795 5795 5794
5778 5779 5780 5781 5782 5783 5785 5785 5786 5786 5787 5788 5788 5789 5790 5791 5791 5792 5793 5793 5794 5794 5795 5795 5795 5796 5796 5797 5796 5796 5796 5796 5796 5797 5797 5797 5797 5798 5798 5799 5800 5801 5801 5802 5802 5800 5799 5799 5800 5800 5800 5800 5800 5799 5800 5800 5800 5800 5800 5799 5799 5799 5798 5798 5798 5798 5798 5798 5798 5797 5797 5797 5796 5796 5796 5795 5795 5795 5795 5794 5794 5793 5793 5792 5792
5775 5776 5778 5779 5780 5781 5783 5783 5784 5785 5785 5785 5786 5787 5787 5788 5789 5790 5791 5791 5792 5792 5793 5793 5793 5794 5794 5794 5794 5794 5794 5794 5794 5795 5795 5795 5796 5796 5797 5797 5798 5799 5799 5800 5800 5799 5798 5797 5798 5798 5797 5797 5797 5797 5797 5797 5797 5797 5797 5797 5797 5796 5796 5796 5796 5796 5796 5795 5795 5795 5795 5794 5794 5794 5793 5793 5793 5792 5792 5792 5791 5791 5790 5790 5789
5773 5774 5775 5777 5778 5779 5780 5781 5782 5783 5783 5783 5784 5785 5785 5786 5787 5788 5788 5789 5789 5790 5790 5790 5791 5791 5792 5792 5792 5793 5793 5792 5793 5793 5793 5793 5794 5794 5795 5795 5796 5796 5796 5796 5797 5797 5797 5795 5795 5795 5795 5794 5795 5794 5794 5795 5795 5795 5795 5794 5794 5794 5794 5794 5793 5793 5793 5793 5793 5792 5792 5792 5792 5791 5791 5790 5790 5790 5789 5789 5788 5788 5788 5787 5786
5771 5772 5774 5775 5776 5777 5778 5779 5780 5780 5781 5782 5782 5783 5783 5784 5785 5785 5786 5787 5787 5787 5787 5788 5788 5789 5789 5790 5790 5791 5791 5791 5791 5791 5791 5791 5792 5792 5792 5793 5793 5793 5793 5793 5793 5794 5794 5793 5792 5792 5792 5791 5792 5792 5792 5793 5792 5792 5792 5792 5792 5792 5792 5791 5791 5790 5790 5790 5790 5789 5789 5789 5789 5789 5788 5788 5787 5787 5786 5786 5785 5785 5784 5784 5783
5769 5771 5772 5773 5773 5774 5775 5776 5777 5778 5779 5779 5780 5781 5781 5782 5782 5783 5783 5784 5785 5785 5785 5786 5786 5787 5787 5788 5788 5788 5788 5788 5788 5788 5789 5789 5789 5789 5789 5790 5790 5790 5790 5790 5790 5790 5791 5791 5791 5791 5790 5790 5790 5790 5790 5790 5790 5790 5790 5789 5789 5789 5789 5788 5788 5788 5787 5787 5787 5786 5786 5786 5786 5785 5785 5784 5784 5783 5782 5782 5781 5781 5780 5780 5779
5767 5769 5769 5770 5771 5772 5773 5774 5775 5776 5777 5777 5778 5779 5779 5780 5780 5781 5781 5781 5782 5783 5783 5783 5784 5784 5785 5785 5786 5786 5786 5786 5786 5786 5787 5787 5786 5787 5787 5787 5788 5787 5787 5786 5787 5787 5788 5788 5788 5789 5789 5788 5788 5788 5788 5787 5787 5787 5787 5786 5786 5786 5786 5785 5785 5785 5784 5784 5784 5783 5783 5783 5782 5782 5781 5781 5780 5779 5779 5778 5778 5777 5776 5776 5775
5765 5766 5767 5768 5769 5770 5771 5772 5773 5774 5774 5775 5776 5777 5777 5777 5778 5778 5779 5779 5780 5780 5780 5781 5781 5782 5782 5783 5784 5784 5784 5784 5784 5784 5784 5784 5784 5784 5785 5785 5785 5785 5784 5784 5783 5784 5785 5785 5786 5786 5786 5786 5785 5785 5785 5785 5784 5784 5784 5783 5783 5783 5783 5782 5782 5782 5781 5781 5781 5780 5780 5779 5778 5778 5777 5777 5776 5776 5775 5774 5774 5773 5772 5771 5770
5762 5763 5764 5765 5767 5768 5769 5770 5771 5772 5772 5773 5774 5774 5775 5775 5776 5776 5776 5777 5778 5778 5778 5779 5779 5779 5780 5781 5781 5781 5781 5781 5782 5782 5782 5782 5782 5782 5782 5782 5782 5782 5782 5781 5782 5782 5782 5783 5783 5783 5783 5783 5783 5782 5782 5782 5781 5781 5781 5781 5780 5780 5780 5779 5779 5778 5777 5777 5777 5777 5776 5775 5775 5774 5773 5772 5772 5771 5771 5770 5769 5768 5767 5766 5765
5759 5761 5762 5763 5764 5765 5767 5768 5769 5770 5770 5770 5771 5771 5772 5773 5773 5774 5774 5775 5776 5776 5776 5777 5777 5777 5778 5778 5778 5778 5778 5778 5779 5779 5778 5778 5778 5778 5778 5778 5778 5778 5779 5779 5779 5780 5779 5779 5779 5779 5778 5778 5779 5779 5779 5779 5778 5778 5778 5778 5777 5777 5776 5776 5775 5775 5774 5773 5772 5772 5772 5771 5771 5770 5769 5768 5767 5767 5766 5765 5764 5763 5762 5761 5759
5757 5759 5760 5761 5762 5764 5765 5766 5767 5767 5768 5768 5768 5769 5770 5771 5771 5771 5772 5773 5773 5774 5774 5775 5775 5775 5775 5776 5776 5776 5776 5775 5775 5776 5776 5775 5775 5775 5775 5775 5775 5775 5776 5776 5776 5777 5776 5776 5775 5775 5774 5774 5774 5775 5775 5776 5776 5775 5775 5775 5774 5773 5773 5772 5772 5771 5770 5769 5768 5767 5767 5766 5766 5765 5765 5763 5762 5762 5761 5760 5759 5758 5756 5755 5754
5755 5757 5757 5758 5760 5762 5763 5764 5764 5765 5765 5765 5766 5767 5768 5768 5769 5769 5769 5770 5771 5771 5772 5772 5773 5773 5773 5773 5773 5773 5773 5773 5773 5773 5773 5773 5773 5773 5773 5773 5773 5772 5772 5773 5773 5773 5773 5773 5772 5772 5771 5771 5771 5771 5772 5772 5772 5772 5771 5771 5770 5769 5768 5768 5768 5767 5766 5765 5764 5763 5763 5762 5761 5760 5760 5759 5758 5757 5756 5755 5754 5752 5751 5750 5748
5753 5754 5755 5756 5759 5760 5761 5761 5762 5762 5762 5763 5764 5764 5765 5766 5766 5767 5767 5768 5768 5768 5769 5769 5770 5770 5770 5771 5771 5771 5771 5770 5770 5770 5770 5770 5770 5770 5770 5770 5770 5770 5770 5770 5769 5769 5768 5768 5768 5768 5768 5768 5768 5768 5767 5767 5768 5767 5767 5767 5766 5765 5764 5764 5763 5763 5762 5761 5760 5760 5759 5758 5756 5755 5754 5754 5752 5752 5751 5750 5749 5747 5746 5744 5742
5751 5752 5753 5755 5757 5757 5758 5759 5759 5759 5760 5761 5762 5762 5763 5764 5764 5764 5765 5765 5765 5765 5766 5766 5767 5767 5768 5768 5768 5768 5768 5768 5767 5767 5766 5766 5767 5767 5767 5766 5767 5767 5767 5767 5766 5766 5765 5765 5765 5765 5765 5765 5765 5764 5764 5763 5763 5763 5762 5761 5761 5760 5760 5760 5759 5758 5757 5757 5757 5757 5756 5754 5753 5752 5750 5749 5747 5746 5746 5745 5743 5742 5740 5739 5737
5748 5749 5750 5752 5753 5754 5755 5756 5756 5757 5758 5759 5759 5760 5760 5761 5761 5761 5762 5762 5762 5762 5762 5763 5764 5765 5765 5765 5765 5765 5765 5765 5764 5764 5763 5763 5763 5763 5763 5763 5764 5764 5763 5763 5763 5762 5762 5762 5762 5762 5762 5761 5761 5761 5760 5759 5759 5759 5758 5757 5755 5755 5754 5754 5754 5753 5753 5752 5752 5752 5751 5750 5749 5748 5747 5745 5744 5742 5740 5739 5738 5736 5735 5733 5731
5745 5746 5747 5749 5750 5751 5752 5752 5753 5754 5755 5756 5756 5757 5758 5758 5758 5759 5759 5759 5759 5759 5758 5759 5761 5762 5762 5762 5762 5762 5762 5762 5761 5760 5760 5759 5759 5760 5760 5760 5761 5761 5760 5759 5759 5758 5759 5759 5759 5758 5758 5758 5758 5758 5757 5756 5756 5755 5754 5753 5752 5750 5749 5748 5748 5747 5746 5746 5745 5744 5744 5743 5742 5742 5741 5740 5738 5737 5735 5734 5732 5730 5729 5728 5726
5742 5743 5745 5746 5748 5748 5749 5750 5751 5752 5752 5753 5754 5754 5755 5755 5756 5756 5756 5756 5756 5755 5755 5756 5758 5758 5759 5758 5759 5759 5759 5759 5758 5756 5756 5756 5756 5757 5757 5757 5758 5758 5757 5756 5755 5755 5755 5755 5754 5754 5753 5754 5754 5753 5753 5753 5752 5751 5751 5749 5747 5746 5745 5744 5743 5742 5741 5740 5739 5737 5737 5737 5736 5735 5735 5733 5731 5730 5729 5727 5725 5723 5721 5720 5718
5739 5740 5742 5744 5745 5746 5747 5747 5748 5749 5749 5750 5751 5752 5752 5752 5753 5753 5753 5754 5753 5753 5753 5754 5754 5754 5754 5754 5754 5755 5755 5755 5754 5753 5752 5753 5753 5754 5754 5754 5754 5754 5753 5752 5752 5752 5751 5751 5750 5750 5749 5749 5748 5748 5748 5748 5747 5747 5746 5744 5743 5741 5740 5740 5739 5738 5737 5735 5733 5732 5731 5730 5729 5728 5727 5726 5724 5723 5722 5720 5718 5716 5713 5711 5710
5736 5738 5739 5741 5742 5743 5744 5744 5745 5746 5747 5747 5748 5748 5748 5748 5749 5749 5749 5750 5750 5749 5749 5750 5750 5750 5750 5750 5750 5750 5751 5751 5750 5749 5749 5749 5750 5750 5750 5750 5750 5749 5749 5749 5749 5748 5747 5747 5746 5745 5745 5744 5743 5743 5743 5742 5742 5742 5741 5739 5738 5736 5734 5734 5734 5733 5731 5729 5728 5726 5725 5724 5722 5720 5719 5718 5716 5715 5714 5712 5710 5708 5705 5703 5701
5734 5735 5737 5738 5739 5739 5740 5741 5742 5743 5744 5744 5744 5744 5744 5744 5745 5745 5746 5746 5746 5746 5746 5746 5746 5746 5746 5746 5746 5746 5746 5746 5746 5745 5745 5745 5746 5746 5746 5746 5746 5745 5744 5745 5744 5744 5743 5743 5742 5741 5740 5739 5738 5737 5737 5736 5735 5736 5735 5734 5733 5731 5729 5728 5728 5726 5724 5722 5719 5718 5718 5717 5715 5712 5710 5709 5707 5707 5705 5703 5701 5699 5696 5694 5691
5731 5732 5734 5735 5736 5736 5737 5738 5739 5740 5740 5741 5741 5741 5741 5741 5741 5741 5742 5742 5742 5742 5743 5743 5742 5742 5742 5742 5742 5742 5742 5742 5742 5742 5741 5741 5742 5742 5742 5742 5742 5741 5741 5740 5740 5739 5738 5737 5736 5736 5734 5733 5732 5731 5730 5729 5728 5728 5728 5727 5726 5724 5723 5722 5720 5719 5717 5714 5711 5709 5709 5709 5706 5703 5701 5699 5698 5697 5696 5693 5691 5689 5687 5684 5682
5728 5730 5731 5732 5733 5734 5735 5736 5737 5737 5738 5738 5738 5738 5738 5738 5738 5738 5738 5738 5739 5739 5739 5739 5739 5739 5739 5739 5739 5739 5739 5738 5738 5738 5738 5738 5738 5738 5738 5738 5738 5737 5737 5736 5736 5735 5734 5733 5732 5731 5729 5728 5727 5726 5724 5722 5721 5721 5720 5720 5718 5717 5716 5714 5712 5711 5710 5707 5704 5701 5700 5699 5697 5694 5692 5689 5688 5687 5686 5684 5681 5680 5678 5676 5674